STARLINK-1008, 44714

Orbit data source: Space-Track

STARLINK-1008, 44714 is a payload satellite owned by SpaceX/Seattle (US) in LEO that was launched on Mon, 11 Nov 2019 UTC via an FALCON 9 launch vehicle from the Air Force Eastern Test Range (AFETR). Payload-class satellites include a variety of spacecraft equipped with specific instruments for various scientific and technological missions. These include communications satellites like Starlink; space stations such as the ISS; scientific satellites like the Hubble; Earth observation satellites from companies like Planet Labs, Umbra, and HawkEye 360; GPS; miniature CubeSats for education and research; and military/defense satellites.

Loading next visibility...
Identifier
44714, 2019-074B
Orbit
LEO
Last TLE update
20 hours ago
Origin
Manufacturer
SpaceX/Seattle
Mission
Operational Commercial Communications
Bus & Motor
STARLINK, Unknown motor
Mass
260 kg wet, ~248 kg dry
Launch date (UTC)
2019-11-11 (6 years ago)
Launch vehicle
FALCON 9
Launch site
Air Force Eastern Test Range (AFETR)
Object type
Payload
Rocket body
Debris
Shape & HBR
Box + 1 Pan, 8.86 m
Radar Cross Section
13.562 m², Large (>1 m²)

Expand to show TLE details & history

TLE from 20 hours ago
0 STARLINK-1008
1 44714U 19074B   25191.27335204  .00000860  00000-0  76603-4 0  9995
2 44714  53.0543 194.8682 0001007  67.5652 292.5444 15.06395591312212
Epoch: 2025-07-10T06:33Z
TLE epoch observation values (Epoch: 2025-07-10T06:33:37.616Z)
Latitude
0.00003°
Longitude
168.01949°
Altitude
547.837 km
Speed
7.589 km/s
True Right ascension
12h 59m 28s
True Declination
0° 00' 00"
Sunlit
Object was in daylight at epoch
Visualization orbit readout
Latitude
-40.92024°
Longitude
24.66848°
Altitude
561.435 km
Speed
7.58 km/s
Apparent Right ascension
03h 12m 59s
Apparent Declination
-40° 18' 25"
Sunlit
Object is in daylight
Visualization observer readout
Local Sidereal Time
14:58:57
Azimuth
260.58° W
Elevation
-87.291°
Doppler factor
1
Orbital elements
Apogee altitude
548.193 km
Perigee altitude
546.798 km
Semi-major axis
6,925.633 km
Eccentricity
0.0001
Inclination
53.0543°
RAAN
194.8682°
Arg. of periapsis
67.5652°
True anomaly
Unknown
Mean anomaly
292.5444°
Eccentric anomaly
Unknown
Mean motion
3.76577 °/min
Orbital period
95.6 mins
BSTAR
0.000076603
Loading maneuver chart data...
Loading SW <> Apogee altitude chart data...

STARLINK-1008 Visibility forecast

Observer location: undefined°, undefined°

Span
Click to sort rows by Start time (UTC) header in descending order
Start Az.
Max El. time (UTC)
Max El. Az.
Max El.
End time (UTC)
End Az.
7 mins2025-07-11 03:27:21.604Z247.729° W2025-07-11 03:31:21.604Z351.661° N37.746°2025-07-11 03:34:21.604Z40.907° NE
5 mins2025-07-11 08:30:21.604Z338.523° N2025-07-11 08:32:21.604Z18.148° NNE24.882°2025-07-11 08:35:21.604Z79.612° E
5 mins2025-07-11 10:10:21.604Z289.995° WNW2025-07-11 10:12:21.604Z226.522° WSW38.501°2025-07-11 10:15:21.604Z152.325° SSE
5 mins2025-07-12 01:43:21.604Z173.583° S2025-07-12 01:45:21.604Z127.992° SE25.509°2025-07-12 01:48:21.604Z74.132° E
|